owner,sensor,date,latitude,longitude,air_pressure(mBar),qcFlag 
WAVCIS,ioos:station:WAVCIS:CSI16:1,2011-11-01T00:00:00Z,29.4012,-89.0355,1015.91,11111222 
WAVCIS,ioos:station:WAVCIS:CSI16:1,2011-11-01T01:00:00Z,29.4012,-89.0355,1016.57,11111222 
WAVCIS,ioos:station:WAVCIS:CSI16:1,2011-11-01T02:00:00Z,29.4012,-89.0355,1017.08,11111222 
WAVCIS,ioos:station:WAVCIS:CSI16:1,2011-11-01T03:00:00Z,29.4012,-89.0355,1017.4,11111222 
WAVCIS,ioos:station:WAVCIS:CSI16:1,2011-11-01T04:00:00Z,29.4012,-89.0355,1017.24,11111222 
WAVCIS,ioos:station:WAVCIS:CSI16:1,2011-11-01T05:00:00Z,29.4012,-89.0355,1017.01,11111222 
WAVCIS,ioos:station:WAVCIS:CSI16:1,2011-11-01T06:00:00Z,29.4012,-89.0355,1016.72,11111222 
WAVCIS,ioos:station:WAVCIS:CSI16:1,2011-11-01T07:00:00Z,29.4012,-89.0355,1016.61,11111222 
WAVCIS,ioos:station:WAVCIS:CSI16:1,2011-11-01T08:00:00Z,29.4012,-89.0355,1016.55,11111222 
WAVCIS,ioos:station:WAVCIS:CSI16:1,2011-11-01T09:00:00Z,29.4012,-89.0355,1016.49,11111222 
WAVCIS,ioos:station:WAVCIS:CSI16:1,2011-11-01T10:00:00Z,29.4012,-89.0355,1016.35,11111222 
WAVCIS,ioos:station:WAVCIS:CSI16:1,2011-11-01T11:00:00Z,29.4012,-89.0355,1016.67,11111222 
WAVCIS,ioos:station:WAVCIS:CSI16:1,2011-11-01T12:00:00Z,29.4012,-89.0355,1017.01,11111222 
WAVCIS,ioos:station:WAVCIS:CSI16:1,2011-11-01T13:00:00Z,29.4012,-89.0355,1017.69,11111222 
WAVCIS,ioos:station:WAVCIS:CSI16:1,2011-11-01T14:00:00Z,29.4012,-89.0355,1018.28,11111222 
WAVCIS,ioos:station:WAVCIS:CSI16:1,2011-11-01T15:00:00Z,29.4012,-89.0355,1018.98,11111222 
WAVCIS,ioos:station:WAVCIS:CSI16:1,2011-11-01T16:00:00Z,29.4012,-89.0355,1019.2,11111222 
WAVCIS,ioos:station:WAVCIS:CSI16:1,2011-11-01T17:00:00Z,29.4012,-89.0355,1018.78,11111222 
WAVCIS,ioos:station:WAVCIS:CSI16:1,2011-11-01T18:00:00Z,29.4012,-89.0355,1018.0,11111222 
WAVCIS,ioos:station:WAVCIS:CSI16:1,2011-11-01T19:00:00Z,29.4012,-89.0355,1017.18,11111222 
WAVCIS,ioos:station:WAVCIS:CSI16:1,2011-11-01T20:00:00Z,29.4012,-89.0355,1017.05,11111222 
WAVCIS,ioos:station:WAVCIS:CSI16:1,2011-11-01T21:00:00Z,29.4012,-89.0355,1017.09,11111222 
WAVCIS,ioos:station:WAVCIS:CSI16:1,2011-11-01T22:00:00Z,29.4012,-89.0355,1017.2,11111222 
WAVCIS,ioos:station:WAVCIS:CSI16:1,2011-11-01T23:00:00Z,29.4012,-89.0355,1017.3,11111222 
WAVCIS,ioos:station:WAVCIS:CSI16:1,2011-11-02T00:00:00Z,29.4012,-89.0355,1017.4,11111222 
WAVCIS,ioos:station:WAVCIS:CSI16:1,2011-11-02T01:00:00Z,29.4012,-89.0355,1017.65,11111222 
WAVCIS,ioos:station:WAVCIS:CSI16:1,2011-11-02T02:00:00Z,29.4012,-89.0355,1017.79,11111222 
WAVCIS,ioos:station:WAVCIS:CSI16:1,2011-11-02T03:00:00Z,29.4012,-89.0355,1017.89,11111222 
WAVCIS,ioos:station:WAVCIS:CSI16:1,2011-11-02T04:00:00Z,29.4012,-89.0355,1018.02,11111222 
WAVCIS,ioos:station:WAVCIS:CSI16:1,2011-11-02T05:00:00Z,29.4012,-89.0355,1017.71,11111222 
WAVCIS,ioos:station:WAVCIS:CSI16:1,2011-11-02T06:00:00Z,29.4012,-89.0355,1017.26,11111222 
WAVCIS,ioos:station:WAVCIS:CSI16:1,2011-11-02T07:00:00Z,29.4012,-89.0355,1017.01,11111222 
WAVCIS,ioos:station:WAVCIS:CSI16:1,2011-11-02T08:00:00Z,29.4012,-89.0355,1016.63,11111222 
WAVCIS,ioos:station:WAVCIS:CSI16:1,2011-11-02T09:00:00Z,29.4012,-89.0355,1016.65,11111222 
WAVCIS,ioos:station:WAVCIS:CSI16:1,2011-11-02T10:00:00Z,29.4012,-89.0355,1016.7,11111222 
WAVCIS,ioos:station:WAVCIS:CSI16:1,2011-11-02T11:00:00Z,29.4012,-89.0355,1017.09,11111222 
WAVCIS,ioos:station:WAVCIS:CSI16:1,2011-11-02T12:00:00Z,29.4012,-89.0355,1017.6,11111222 
WAVCIS,ioos:station:WAVCIS:CSI16:1,2011-11-02T13:00:00Z,29.4012,-89.0355,1017.93,11111222 
WAVCIS,ioos:station:WAVCIS:CSI16:1,2011-11-02T14:00:00Z,29.4012,-89.0355,1018.67,11111222 
WAVCIS,ioos:station:WAVCIS:CSI16:1,2011-11-02T15:00:00Z,29.4012,-89.0355,1019.21,11111222 
WAVCIS,ioos:station:WAVCIS:CSI16:1,2011-11-02T16:00:00Z,29.4012,-89.0355,1020.18,11111222 
WAVCIS,ioos:station:WAVCIS:CSI16:1,2011-11-02T17:00:00Z,29.4012,-89.0355,1020.15,11111222 
WAVCIS,ioos:station:WAVCIS:CSI16:1,2011-11-02T18:00:00Z,29.4012,-89.0355,1019.04,11111222 
WAVCIS,ioos:station:WAVCIS:CSI16:1,2011-11-02T19:00:00Z,29.4012,-89.0355,1018.01,11111222 
WAVCIS,ioos:station:WAVCIS:CSI16:1,2011-11-02T20:00:00Z,29.4012,-89.0355,1017.34,11111222 
WAVCIS,ioos:station:WAVCIS:CSI16:1,2011-11-02T21:00:00Z,29.4012,-89.0355,1016.62,11111222 
WAVCIS,ioos:station:WAVCIS:CSI16:1,2011-11-02T22:00:00Z,29.4012,-89.0355,1016.33,11111222 
WAVCIS,ioos:station:WAVCIS:CSI16:1,2011-11-02T23:00:00Z,29.4012,-89.0355,1016.2,11111222 
WAVCIS,ioos:station:WAVCIS:CSI16:1,2011-11-03T00:00:00Z,29.4012,-89.0355,1016.45,11111222 
WAVCIS,ioos:station:WAVCIS:CSI16:1,2011-11-03T01:00:00Z,29.4012,-89.0355,1016.61,11111222 
WAVCIS,ioos:station:WAVCIS:CSI16:1,2011-11-03T02:00:00Z,29.4012,-89.0355,1016.73,11111222 
WAVCIS,ioos:station:WAVCIS:CSI16:1,2011-11-03T03:00:00Z,29.4012,-89.0355,1016.84,11111222 
WAVCIS,ioos:station:WAVCIS:CSI16:1,2011-11-03T04:00:00Z,29.4012,-89.0355,1016.47,11111222 
WAVCIS,ioos:station:WAVCIS:CSI16:1,2011-11-03T05:00:00Z,29.4012,-89.0355,1016.03,11111222 
WAVCIS,ioos:station:WAVCIS:CSI16:1,2011-11-03T06:00:00Z,29.4012,-89.0355,1015.85,11111222 
WAVCIS,ioos:station:WAVCIS:CSI16:1,2011-11-03T07:00:00Z,29.4012,-89.0355,1015.23,11111222 
WAVCIS,ioos:station:WAVCIS:CSI16:1,2011-11-03T08:00:00Z,29.4012,-89.0355,1014.78,11111222 
WAVCIS,ioos:station:WAVCIS:CSI16:1,2011-11-03T09:00:00Z,29.4012,-89.0355,1014.56,11111222 
WAVCIS,ioos:station:WAVCIS:CSI16:1,2011-11-03T10:00:00Z,29.4012,-89.0355,1014.01,11111222 
WAVCIS,ioos:station:WAVCIS:CSI16:1,2011-11-03T11:00:00Z,29.4012,-89.0355,1014.3,11111222 
WAVCIS,ioos:station:WAVCIS:CSI16:1,2011-11-03T12:00:00Z,29.4012,-89.0355,1014.42,11111222 
WAVCIS,ioos:station:WAVCIS:CSI16:1,2011-11-03T13:00:00Z,29.4012,-89.0355,1014.32,11111222 
WAVCIS,ioos:station:WAVCIS:CSI16:1,2011-11-03T14:00:00Z,29.4012,-89.0355,1014.96,11111222 
WAVCIS,ioos:station:WAVCIS:CSI16:1,2011-11-03T15:00:00Z,29.4012,-89.0355,1014.8,11111222 
WAVCIS,ioos:station:WAVCIS:CSI16:1,2011-11-03T16:00:00Z,29.4012,-89.0355,1014.72,11111222 
WAVCIS,ioos:station:WAVCIS:CSI16:1,2011-11-03T17:00:00Z,29.4012,-89.0355,1014.23,11111222 
WAVCIS,ioos:station:WAVCIS:CSI16:1,2011-11-03T18:00:00Z,29.4012,-89.0355,1013.21,11111222 
WAVCIS,ioos:station:WAVCIS:CSI16:1,2011-11-03T19:00:00Z,29.4012,-89.0355,1012.48,11111222 
WAVCIS,ioos:station:WAVCIS:CSI16:1,2011-11-03T20:00:00Z,29.4012,-89.0355,1011.98,11111222 
WAVCIS,ioos:station:WAVCIS:CSI16:1,2011-11-03T21:00:00Z,29.4012,-89.0355,1011.29,11111222 
WAVCIS,ioos:station:WAVCIS:CSI16:1,2011-11-03T22:00:00Z,29.4012,-89.0355,1011.16,11111222 
WAVCIS,ioos:station:WAVCIS:CSI16:1,2011-11-03T23:00:00Z,29.4012,-89.0355,1011.61,11111222 
WAVCIS,ioos:station:WAVCIS:CSI16:1,2011-11-04T00:00:00Z,29.4012,-89.0355,1012.01,11111222 
WAVCIS,ioos:station:WAVCIS:CSI16:1,2011-11-04T01:00:00Z,29.4012,-89.0355,1012.52,11111222 
WAVCIS,ioos:station:WAVCIS:CSI16:1,2011-11-04T02:00:00Z,29.4012,-89.0355,1012.96,11111222 
WAVCIS,ioos:station:WAVCIS:CSI16:1,2011-11-04T03:00:00Z,29.4012,-89.0355,1013.34,11111222 
WAVCIS,ioos:station:WAVCIS:CSI16:1,2011-11-04T04:00:00Z,29.4012,-89.0355,1013.48,11111222 
WAVCIS,ioos:station:WAVCIS:CSI16:1,2011-11-04T05:00:00Z,29.4012,-89.0355,1013.48,11111222 
WAVCIS,ioos:station:WAVCIS:CSI16:1,2011-11-04T06:00:00Z,29.4012,-89.0355,1013.32,11111222 
WAVCIS,ioos:station:WAVCIS:CSI16:1,2011-11-04T07:00:00Z,29.4012,-89.0355,1012.95,11111222 
WAVCIS,ioos:station:WAVCIS:CSI16:1,2011-11-04T08:00:00Z,29.4012,-89.0355,1012.62,11111222 
WAVCIS,ioos:station:WAVCIS:CSI16:1,2011-11-04T09:00:00Z,29.4012,-89.0355,1012.18,11111222 
WAVCIS,ioos:station:WAVCIS:CSI16:1,2011-11-04T10:00:00Z,29.4012,-89.0355,1012.2,11111222 
WAVCIS,ioos:station:WAVCIS:CSI16:1,2011-11-04T11:00:00Z,29.4012,-89.0355,1012.58,11111222 
WAVCIS,ioos:station:WAVCIS:CSI16:1,2011-11-04T12:00:00Z,29.4012,-89.0355,1012.96,11111222 
WAVCIS,ioos:station:WAVCIS:CSI16:1,2011-11-04T13:00:00Z,29.4012,-89.0355,1013.15,11111222 
WAVCIS,ioos:station:WAVCIS:CSI16:1,2011-11-04T14:00:00Z,29.4012,-89.0355,1014.06,11111222 
WAVCIS,ioos:station:WAVCIS:CSI16:1,2011-11-04T15:00:00Z,29.4012,-89.0355,1014.34,11111222 
WAVCIS,ioos:station:WAVCIS:CSI16:1,2011-11-04T16:00:00Z,29.4012,-89.0355,1014.1,11111222 
WAVCIS,ioos:station:WAVCIS:CSI16:1,2011-11-04T17:00:00Z,29.4012,-89.0355,1013.82,11111222 
WAVCIS,ioos:station:WAVCIS:CSI16:1,2011-11-04T18:00:00Z,29.4012,-89.0355,1013.42,11111222 
WAVCIS,ioos:station:WAVCIS:CSI16:1,2011-11-04T19:00:00Z,29.4012,-89.0355,1012.45,11111222 
WAVCIS,ioos:station:WAVCIS:CSI16:1,2011-11-04T20:00:00Z,29.4012,-89.0355,1011.82,11111222 
WAVCIS,ioos:station:WAVCIS:CSI16:1,2011-11-04T21:00:00Z,29.4012,-89.0355,1011.77,11111222 
WAVCIS,ioos:station:WAVCIS:CSI16:1,2011-11-04T22:00:00Z,29.4012,-89.0355,1012.11,11111222 
WAVCIS,ioos:station:WAVCIS:CSI16:1,2011-11-04T23:00:00Z,29.4012,-89.0355,1012.69,11111222 
WAVCIS,ioos:station:WAVCIS:CSI16:1,2011-11-05T00:00:00Z,29.4012,-89.0355,1012.86,11111222 
WAVCIS,ioos:station:WAVCIS:CSI16:1,2011-11-05T01:00:00Z,29.4012,-89.0355,1013.15,11111222 
WAVCIS,ioos:station:WAVCIS:CSI16:1,2011-11-05T02:00:00Z,29.4012,-89.0355,1013.65,11111222 
WAVCIS,ioos:station:WAVCIS:CSI16:1,2011-11-05T03:00:00Z,29.4012,-89.0355,1014.03,11111222 
WAVCIS,ioos:station:WAVCIS:CSI16:1,2011-11-05T04:00:00Z,29.4012,-89.0355,1014.04,11111222 
WAVCIS,ioos:station:WAVCIS:CSI16:1,2011-11-05T05:00:00Z,29.4012,-89.0355,1013.69,11111222 
WAVCIS,ioos:station:WAVCIS:CSI16:1,2011-11-05T06:00:00Z,29.4012,-89.0355,1013.62,11111222 
WAVCIS,ioos:station:WAVCIS:CSI16:1,2011-11-05T07:00:00Z,29.4012,-89.0355,1013.69,11111222 
WAVCIS,ioos:station:WAVCIS:CSI16:1,2011-11-05T08:00:00Z,29.4012,-89.0355,1013.4,11111222 
WAVCIS,ioos:station:WAVCIS:CSI16:1,2011-11-05T09:00:00Z,29.4012,-89.0355,1013.09,11111222 
WAVCIS,ioos:station:WAVCIS:CSI16:1,2011-11-05T10:00:00Z,29.4012,-89.0355,1013.09,11111222 
WAVCIS,ioos:station:WAVCIS:CSI16:1,2011-11-05T11:00:00Z,29.4012,-89.0355,1013.24,11111222 
WAVCIS,ioos:station:WAVCIS:CSI16:1,2011-11-05T12:00:00Z,29.4012,-89.0355,1013.44,11111222 
WAVCIS,ioos:station:WAVCIS:CSI16:1,2011-11-05T13:00:00Z,29.4012,-89.0355,1013.96,11111222 
WAVCIS,ioos:station:WAVCIS:CSI16:1,2011-11-05T14:00:00Z,29.4012,-89.0355,1014.89,11111222 
WAVCIS,ioos:station:WAVCIS:CSI16:1,2011-11-05T15:00:00Z,29.4012,-89.0355,1015.24,11111222 
WAVCIS,ioos:station:WAVCIS:CSI16:1,2011-11-05T16:00:00Z,29.4012,-89.0355,1015.84,11111222 
WAVCIS,ioos:station:WAVCIS:CSI16:1,2011-11-05T17:00:00Z,29.4012,-89.0355,1015.85,11111222 
WAVCIS,ioos:station:WAVCIS:CSI16:1,2011-11-05T18:00:00Z,29.4012,-89.0355,1015.26,11111222 
WAVCIS,ioos:station:WAVCIS:CSI16:1,2011-11-05T19:00:00Z,29.4012,-89.0355,1014.47,11111222 
WAVCIS,ioos:station:WAVCIS:CSI16:1,2011-11-05T20:00:00Z,29.4012,-89.0355,1013.98,11111222 
WAVCIS,ioos:station:WAVCIS:CSI16:1,2011-11-05T21:00:00Z,29.4012,-89.0355,1014.08,11111222 
WAVCIS,ioos:station:WAVCIS:CSI16:1,2011-11-05T22:00:00Z,29.4012,-89.0355,1014.34,11111222 
WAVCIS,ioos:station:WAVCIS:CSI16:1,2011-11-05T23:00:00Z,29.4012,-89.0355,1014.26,11111222 
WAVCIS,ioos:station:WAVCIS:CSI16:1,2011-11-06T00:00:00Z,29.4012,-89.0355,1014.8,11111222 
WAVCIS,ioos:station:WAVCIS:CSI16:1,2011-11-06T01:00:00Z,29.4012,-89.0355,1014.92,11111222 
WAVCIS,ioos:station:WAVCIS:CSI16:1,2011-11-06T02:00:00Z,29.4012,-89.0355,1015.6,11111222 
WAVCIS,ioos:station:WAVCIS:CSI16:1,2011-11-06T03:00:00Z,29.4012,-89.0355,1015.52,11111222 
WAVCIS,ioos:station:WAVCIS:CSI16:1,2011-11-06T04:00:00Z,29.4012,-89.0355,1015.59,11111222 
WAVCIS,ioos:station:WAVCIS:CSI16:1,2011-11-06T05:00:00Z,29.4012,-89.0355,1015.36,11111222 
WAVCIS,ioos:station:WAVCIS:CSI16:1,2011-11-06T06:00:00Z,29.4012,-89.0355,1014.66,11111222 
WAVCIS,ioos:station:WAVCIS:CSI16:1,2011-11-06T07:00:00Z,29.4012,-89.0355,1014.79,11111222 
WAVCIS,ioos:station:WAVCIS:CSI16:1,2011-11-06T08:00:00Z,29.4012,-89.0355,1014.34,11111222 
WAVCIS,ioos:station:WAVCIS:CSI16:1,2011-11-06T09:00:00Z,29.4012,-89.0355,1014.22,11111222 
WAVCIS,ioos:station:WAVCIS:CSI16:1,2011-11-06T10:00:00Z,29.4012,-89.0355,1014.63,11111222 
WAVCIS,ioos:station:WAVCIS:CSI16:1,2011-11-06T11:00:00Z,29.4012,-89.0355,1014.97,11111222 
WAVCIS,ioos:station:WAVCIS:CSI16:1,2011-11-06T12:00:00Z,29.4012,-89.0355,1015.95,11111222 
WAVCIS,ioos:station:WAVCIS:CSI16:1,2011-11-06T13:00:00Z,29.4012,-89.0355,1016.89,11111222 
WAVCIS,ioos:station:WAVCIS:CSI16:1,2011-11-06T14:00:00Z,29.4012,-89.0355,1017.62,11111222 
WAVCIS,ioos:station:WAVCIS:CSI16:1,2011-11-06T15:00:00Z,29.4012,-89.0355,1018.07,11111222 
WAVCIS,ioos:station:WAVCIS:CSI16:1,2011-11-06T16:00:00Z,29.4012,-89.0355,1018.1,11111222 
WAVCIS,ioos:station:WAVCIS:CSI16:1,2011-11-06T17:00:00Z,29.4012,-89.0355,1017.87,11111222 
WAVCIS,ioos:station:WAVCIS:CSI16:1,2011-11-06T18:00:00Z,29.4012,-89.0355,1017.44,11111222 
WAVCIS,ioos:station:WAVCIS:CSI16:1,2011-11-06T19:00:00Z,29.4012,-89.0355,1016.2,11111222 
WAVCIS,ioos:station:WAVCIS:CSI16:1,2011-11-06T20:00:00Z,29.4012,-89.0355,1016.02,11111222 
WAVCIS,ioos:station:WAVCIS:CSI16:1,2011-11-06T21:00:00Z,29.4012,-89.0355,1016.21,11111222 
WAVCIS,ioos:station:WAVCIS:CSI16:1,2011-11-06T22:00:00Z,29.4012,-89.0355,1016.29,11111222 
WAVCIS,ioos:station:WAVCIS:CSI16:1,2011-11-06T23:00:00Z,29.4012,-89.0355,1016.51,11111222 
WAVCIS,ioos:station:WAVCIS:CSI16:1,2011-11-07T00:00:00Z,29.4012,-89.0355,1017.11,11111222 
WAVCIS,ioos:station:WAVCIS:CSI16:1,2011-11-07T01:00:00Z,29.4012,-89.0355,1017.78,11111222 
WAVCIS,ioos:station:WAVCIS:CSI16:1,2011-11-07T02:00:00Z,29.4012,-89.0355,1017.79,11111222 
WAVCIS,ioos:station:WAVCIS:CSI16:1,2011-11-07T03:00:00Z,29.4012,-89.0355,1018.12,11111222 
WAVCIS,ioos:station:WAVCIS:CSI16:1,2011-11-07T04:00:00Z,29.4012,-89.0355,1018.29,11111222 
WAVCIS,ioos:station:WAVCIS:CSI16:1,2011-11-07T05:00:00Z,29.4012,-89.0355,1018.27,11111222 
WAVCIS,ioos:station:WAVCIS:CSI16:1,2011-11-07T06:00:00Z,29.4012,-89.0355,1017.94,11111222 
WAVCIS,ioos:station:WAVCIS:CSI16:1,2011-11-07T07:00:00Z,29.4012,-89.0355,1017.77,11111222 
WAVCIS,ioos:station:WAVCIS:CSI16:1,2011-11-07T08:00:00Z,29.4012,-89.0355,1017.49,11111222 
WAVCIS,ioos:station:WAVCIS:CSI16:1,2011-11-07T09:00:00Z,29.4012,-89.0355,1017.02,11111222 
WAVCIS,ioos:station:WAVCIS:CSI16:1,2011-11-07T10:00:00Z,29.4012,-89.0355,1017.07,11111222 
WAVCIS,ioos:station:WAVCIS:CSI16:1,2011-11-07T11:00:00Z,29.4012,-89.0355,1017.21,11111222 
WAVCIS,ioos:station:WAVCIS:CSI16:1,2011-11-07T12:00:00Z,29.4012,-89.0355,1017.46,11111222 
WAVCIS,ioos:station:WAVCIS:CSI16:1,2011-11-07T13:00:00Z,29.4012,-89.0355,1017.67,11111222 
WAVCIS,ioos:station:WAVCIS:CSI16:1,2011-11-07T14:00:00Z,29.4012,-89.0355,1018.32,11111222 
WAVCIS,ioos:station:WAVCIS:CSI16:1,2011-11-07T15:00:00Z,29.4012,-89.0355,1018.9,11111222 
WAVCIS,ioos:station:WAVCIS:CSI16:1,2011-11-07T16:00:00Z,29.4012,-89.0355,1019.16,11111222 
WAVCIS,ioos:station:WAVCIS:CSI16:1,2011-11-07T17:00:00Z,29.4012,-89.0355,1019.04,11111222 
WAVCIS,ioos:station:WAVCIS:CSI16:1,2011-11-07T18:00:00Z,29.4012,-89.0355,1018.1,11111222 
WAVCIS,ioos:station:WAVCIS:CSI16:1,2011-11-07T19:00:00Z,29.4012,-89.0355,1017.08,11111222 
WAVCIS,ioos:station:WAVCIS:CSI16:1,2011-11-07T20:00:00Z,29.4012,-89.0355,1016.35,11111222 
WAVCIS,ioos:station:WAVCIS:CSI16:1,2011-11-07T21:00:00Z,29.4012,-89.0355,1015.73,11111222 
WAVCIS,ioos:station:WAVCIS:CSI16:1,2011-11-07T22:00:00Z,29.4012,-89.0355,1015.74,11111222 
WAVCIS,ioos:station:WAVCIS:CSI16:1,2011-11-07T23:00:00Z,29.4012,-89.0355,1015.87,11111222 
WAVCIS,ioos:station:WAVCIS:CSI16:1,2011-11-08T00:00:00Z,29.4012,-89.0355,1016.03,11111222 
WAVCIS,ioos:station:WAVCIS:CSI16:1,2011-11-08T01:00:00Z,29.4012,-89.0355,1016.32,11111222 
WAVCIS,ioos:station:WAVCIS:CSI16:1,2011-11-08T02:00:00Z,29.4012,-89.0355,1016.78,11111222 
WAVCIS,ioos:station:WAVCIS:CSI16:1,2011-11-08T03:00:00Z,29.4012,-89.0355,1016.9,11111222 
WAVCIS,ioos:station:WAVCIS:CSI16:1,2011-11-08T04:00:00Z,29.4012,-89.0355,1016.24,11111222 
WAVCIS,ioos:station:WAVCIS:CSI16:1,2011-11-08T05:00:00Z,29.4012,-89.0355,1015.27,11111222 
WAVCIS,ioos:station:WAVCIS:CSI16:1,2011-11-08T06:00:00Z,29.4012,-89.0355,1014.41,11111222 
WAVCIS,ioos:station:WAVCIS:CSI16:1,2011-11-08T07:00:00Z,29.4012,-89.0355,1014.05,11111222 
WAVCIS,ioos:station:WAVCIS:CSI16:1,2011-11-08T08:00:00Z,29.4012,-89.0355,1014.03,11111222 
WAVCIS,ioos:station:WAVCIS:CSI16:1,2011-11-08T09:00:00Z,29.4012,-89.0355,1013.97,11111222 
WAVCIS,ioos:station:WAVCIS:CSI16:1,2011-11-08T10:00:00Z,29.4012,-89.0355,1013.61,11111222 
WAVCIS,ioos:station:WAVCIS:CSI16:1,2011-11-08T11:00:00Z,29.4012,-89.0355,1014.13,11111222 
WAVCIS,ioos:station:WAVCIS:CSI16:1,2011-11-08T12:00:00Z,29.4012,-89.0355,1014.34,11111222 
WAVCIS,ioos:station:WAVCIS:CSI16:1,2011-11-08T13:00:00Z,29.4012,-89.0355,1014.85,11111222 
WAVCIS,ioos:station:WAVCIS:CSI16:1,2011-11-08T14:00:00Z,29.4012,-89.0355,1015.52,11111222 
WAVCIS,ioos:station:WAVCIS:CSI16:1,2011-11-08T15:00:00Z,29.4012,-89.0355,1015.89,11111222 
WAVCIS,ioos:station:WAVCIS:CSI16:1,2011-11-08T16:00:00Z,29.4012,-89.0355,1016.61,11111222 
WAVCIS,ioos:station:WAVCIS:CSI16:1,2011-11-08T17:00:00Z,29.4012,-89.0355,1016.27,11111222 
WAVCIS,ioos:station:WAVCIS:CSI16:1,2011-11-08T18:00:00Z,29.4012,-89.0355,1015.64,11111222 
WAVCIS,ioos:station:WAVCIS:CSI16:1,2011-11-08T19:00:00Z,29.4012,-89.0355,1014.46,11111222 
WAVCIS,ioos:station:WAVCIS:CSI16:1,2011-11-08T20:00:00Z,29.4012,-89.0355,1013.93,11111222 
WAVCIS,ioos:station:WAVCIS:CSI16:1,2011-11-08T21:00:00Z,29.4012,-89.0355,1013.59,11111222 
WAVCIS,ioos:station:WAVCIS:CSI16:1,2011-11-08T22:00:00Z,29.4012,-89.0355,1013.12,11111222 
WAVCIS,ioos:station:WAVCIS:CSI16:1,2011-11-08T23:00:00Z,29.4012,-89.0355,1013.05,11111222 
WAVCIS,ioos:station:WAVCIS:CSI16:1,2011-11-09T00:00:00Z,29.4012,-89.0355,1013.13,11111222 
WAVCIS,ioos:station:WAVCIS:CSI16:1,2011-11-09T01:00:00Z,29.4012,-89.0355,1013.42,11111222 
WAVCIS,ioos:station:WAVCIS:CSI16:1,2011-11-09T02:00:00Z,29.4012,-89.0355,1013.7,11111222 
WAVCIS,ioos:station:WAVCIS:CSI16:1,2011-11-09T03:00:00Z,29.4012,-89.0355,1013.92,11111222 
WAVCIS,ioos:station:WAVCIS:CSI16:1,2011-11-09T04:00:00Z,29.4012,-89.0355,1013.3,11111222 
WAVCIS,ioos:station:WAVCIS:CSI16:1,2011-11-09T05:00:00Z,29.4012,-89.0355,1013.0,11111222 
WAVCIS,ioos:station:WAVCIS:CSI16:1,2011-11-09T06:00:00Z,29.4012,-89.0355,1013.23,11111222 
WAVCIS,ioos:station:WAVCIS:CSI16:1,2011-11-09T07:00:00Z,29.4012,-89.0355,1012.62,11111222 
WAVCIS,ioos:station:WAVCIS:CSI16:1,2011-11-09T08:00:00Z,29.4012,-89.0355,1012.81,11111222 
WAVCIS,ioos:station:WAVCIS:CSI16:1,2011-11-09T09:00:00Z,29.4012,-89.0355,1013.19,11111222 
WAVCIS,ioos:station:WAVCIS:CSI16:1,2011-11-09T10:00:00Z,29.4012,-89.0355,1012.78,11111222 
WAVCIS,ioos:station:WAVCIS:CSI16:1,2011-11-09T11:00:00Z,29.4012,-89.0355,1013.37,11111222 
WAVCIS,ioos:station:WAVCIS:CSI16:1,2011-11-09T12:00:00Z,29.4012,-89.0355,1013.32,11111222 
WAVCIS,ioos:station:WAVCIS:CSI16:1,2011-11-09T13:00:00Z,29.4012,-89.0355,1013.25,11111222 
WAVCIS,ioos:station:WAVCIS:CSI16:1,2011-11-09T14:00:00Z,29.4012,-89.0355,1013.31,11111222 
WAVCIS,ioos:station:WAVCIS:CSI16:1,2011-11-09T15:00:00Z,29.4012,-89.0355,1013.44,11111222 
WAVCIS,ioos:station:WAVCIS:CSI16:1,2011-11-09T16:00:00Z,29.4012,-89.0355,1013.47,11111222 
WAVCIS,ioos:station:WAVCIS:CSI16:1,2011-11-09T17:00:00Z,29.4012,-89.0355,1013.31,11111222 
WAVCIS,ioos:station:WAVCIS:CSI16:1,2011-11-09T18:00:00Z,29.4012,-89.0355,1012.82,11111222 
WAVCIS,ioos:station:WAVCIS:CSI16:1,2011-11-09T19:00:00Z,29.4012,-89.0355,1011.74,11111222 
WAVCIS,ioos:station:WAVCIS:CSI16:1,2011-11-09T20:00:00Z,29.4012,-89.0355,1011.49,11111222 
WAVCIS,ioos:station:WAVCIS:CSI16:1,2011-11-09T21:00:00Z,29.4012,-89.0355,1011.44,11111222 
WAVCIS,ioos:station:WAVCIS:CSI16:1,2011-11-09T23:00:00Z,29.4012,-89.0355,1011.22,11111222 
WAVCIS,ioos:station:WAVCIS:CSI16:1,2011-11-10T00:00:00Z,29.4012,-89.0355,1011.76,11111222 
WAVCIS,ioos:station:WAVCIS:CSI16:1,2011-11-10T01:00:00Z,29.4012,-89.0355,1012.15,11111222 
WAVCIS,ioos:station:WAVCIS:CSI16:1,2011-11-10T02:00:00Z,29.4012,-89.0355,1012.2,11111222 
WAVCIS,ioos:station:WAVCIS:CSI16:1,2011-11-10T03:00:00Z,29.4012,-89.0355,1013.1,11111222 
WAVCIS,ioos:station:WAVCIS:CSI16:1,2011-11-10T04:00:00Z,29.4012,-89.0355,1013.48,11111222 
WAVCIS,ioos:station:WAVCIS:CSI16:1,2011-11-10T05:00:00Z,29.4012,-89.0355,1013.26,11111222 
WAVCIS,ioos:station:WAVCIS:CSI16:1,2011-11-10T06:00:00Z,29.4012,-89.0355,1013.48,11111222 
WAVCIS,ioos:station:WAVCIS:CSI16:1,2011-11-10T07:00:00Z,29.4012,-89.0355,1013.15,11111222 
WAVCIS,ioos:station:WAVCIS:CSI16:1,2011-11-10T08:00:00Z,29.4012,-89.0355,1013.19,11111222 
WAVCIS,ioos:station:WAVCIS:CSI16:1,2011-11-10T09:00:00Z,29.4012,-89.0355,1012.92,11111222 
WAVCIS,ioos:station:WAVCIS:CSI16:1,2011-11-10T10:00:00Z,29.4012,-89.0355,1013.59,11111222 
WAVCIS,ioos:station:WAVCIS:CSI16:1,2011-11-10T11:00:00Z,29.4012,-89.0355,1014.0,11111222 
WAVCIS,ioos:station:WAVCIS:CSI16:1,2011-11-10T12:00:00Z,29.4012,-89.0355,1014.43,11111222 
WAVCIS,ioos:station:WAVCIS:CSI16:1,2011-11-10T13:00:00Z,29.4012,-89.0355,1014.35,11111222 
WAVCIS,ioos:station:WAVCIS:CSI16:1,2011-11-10T14:00:00Z,29.4012,-89.0355,1014.41,11111222 
WAVCIS,ioos:station:WAVCIS:CSI16:1,2011-11-10T15:00:00Z,29.4012,-89.0355,1015.91,11111222 
WAVCIS,ioos:station:WAVCIS:CSI16:1,2011-11-10T16:00:00Z,29.4012,-89.0355,1015.74,11111222 
WAVCIS,ioos:station:WAVCIS:CSI16:1,2011-11-10T17:00:00Z,29.4012,-89.0355,1016.2,11111222 
WAVCIS,ioos:station:WAVCIS:CSI16:1,2011-11-10T18:00:00Z,29.4012,-89.0355,1015.92,11111222 
WAVCIS,ioos:station:WAVCIS:CSI16:1,2011-11-10T19:00:00Z,29.4012,-89.0355,1015.46,11111222 
WAVCIS,ioos:station:WAVCIS:CSI16:1,2011-11-10T20:00:00Z,29.4012,-89.0355,1014.97,11111222 
WAVCIS,ioos:station:WAVCIS:CSI16:1,2011-11-10T22:00:00Z,29.4012,-89.0355,1014.88,11111222 
WAVCIS,ioos:station:WAVCIS:CSI16:1,2011-11-10T23:00:00Z,29.4012,-89.0355,1014.62,11111222 
WAVCIS,ioos:station:WAVCIS:CSI16:1,2011-11-11T00:00:00Z,29.4012,-89.0355,1015.34,11111222 
WAVCIS,ioos:station:WAVCIS:CSI16:1,2011-11-11T01:00:00Z,29.4012,-89.0355,1016.48,11111222 
WAVCIS,ioos:station:WAVCIS:CSI16:1,2011-11-11T02:00:00Z,29.4012,-89.0355,1017.18,11111222 
WAVCIS,ioos:station:WAVCIS:CSI16:1,2011-11-11T03:00:00Z,29.4012,-89.0355,1017.64,11111222 
WAVCIS,ioos:station:WAVCIS:CSI16:1,2011-11-11T04:00:00Z,29.4012,-89.0355,1017.94,11111222 
WAVCIS,ioos:station:WAVCIS:CSI16:1,2011-11-11T05:00:00Z,29.4012,-89.0355,1017.65,11111222 
WAVCIS,ioos:station:WAVCIS:CSI16:1,2011-11-11T06:00:00Z,29.4012,-89.0355,1017.31,11111222 
WAVCIS,ioos:station:WAVCIS:CSI16:1,2011-11-11T07:00:00Z,29.4012,-89.0355,1017.27,11111222 
WAVCIS,ioos:station:WAVCIS:CSI16:1,2011-11-11T08:00:00Z,29.4012,-89.0355,1017.25,11111222 
WAVCIS,ioos:station:WAVCIS:CSI16:1,2011-11-11T09:00:00Z,29.4012,-89.0355,1017.27,11111222 
WAVCIS,ioos:station:WAVCIS:CSI16:1,2011-11-11T10:00:00Z,29.4012,-89.0355,1017.55,11111222 
WAVCIS,ioos:station:WAVCIS:CSI16:1,2011-11-11T11:00:00Z,29.4012,-89.0355,1017.94,11111222 
WAVCIS,ioos:station:WAVCIS:CSI16:1,2011-11-11T12:00:00Z,29.4012,-89.0355,1018.48,11111222 
WAVCIS,ioos:station:WAVCIS:CSI16:1,2011-11-11T13:00:00Z,29.4012,-89.0355,1019.02,11111222 
WAVCIS,ioos:station:WAVCIS:CSI16:1,2011-11-11T14:00:00Z,29.4012,-89.0355,1019.94,11111222 
WAVCIS,ioos:station:WAVCIS:CSI16:1,2011-11-11T15:00:00Z,29.4012,-89.0355,1020.71,11111222 
WAVCIS,ioos:station:WAVCIS:CSI16:1,2011-11-11T16:00:00Z,29.4012,-89.0355,1020.98,11111222 
WAVCIS,ioos:station:WAVCIS:CSI16:1,2011-11-11T17:00:00Z,29.4012,-89.0355,1020.91,11111222 
WAVCIS,ioos:station:WAVCIS:CSI16:1,2011-11-11T18:00:00Z,29.4012,-89.0355,1020.22,11111222 
WAVCIS,ioos:station:WAVCIS:CSI16:1,2011-11-11T19:00:00Z,29.4012,-89.0355,1019.13,11111222 
WAVCIS,ioos:station:WAVCIS:CSI16:1,2011-11-11T20:00:00Z,29.4012,-89.0355,1018.58,11111222 
WAVCIS,ioos:station:WAVCIS:CSI16:1,2011-11-11T21:00:00Z,29.4012,-89.0355,1018.46,11111222 
WAVCIS,ioos:station:WAVCIS:CSI16:1,2011-11-11T22:00:00Z,29.4012,-89.0355,1018.38,11111222 
WAVCIS,ioos:station:WAVCIS:CSI16:1,2011-11-11T23:00:00Z,29.4012,-89.0355,1018.52,11111222 
WAVCIS,ioos:station:WAVCIS:CSI16:1,2011-11-12T00:00:00Z,29.4012,-89.0355,1018.53,11111222 